Location: Mat�lon
(46.2791°N, 7.1028°E)
Time: 20:32:38
(UTC+00:00)

Tiangong - Pass Details

Date: 30 September 2021
Orbit: 382 x 384 km, 41.5° (Epoch: 20 October)

Event Time Altitude Azimuth Distance (km) Brightness Sun altitude
Exits shadow 03:14:10 16° 130° (SE) 1,110 3.7 -23.6°
Drops below altitude 10° 03:15:16 10° 112° (ESE) 1,396 4.5 -23.4°
Sets 03:17:41 0° 94° (E) 2,250 6.0 -23.0°
